Weather History for Deming, NM

Change the Weather History Date:

Friday, January 18, 2013

  Actual Average Record
Temperature  
Mean Temperature 40 °F 42 °F  
Max Temperature 57 °F 57 °F 79 °F (1971)
Min Temperature 23 °F 27 °F 8 °F (1960)
Degree Days  
Heating Degree Days 25    
Moisture  
Dew Point 16 °F    
Average Humidity 43    
Maximum Humidity 65    
Minimum Humidity 21    
Precipitation  
Precipitation 0.00 in 0.02 in 0.51 in (1993)
Month to date precipitation 0.01 0.33  
Year to date precipitation 0.01 0.33  
Sea Level Pressure  
Sea Level Pressure 30.26 in    
Wind  
Wind Speed 5 mph (East)    
Max Wind Speed 12 mph    
Max Gust Speed 16 mph    
Visibility 10 miles    
Events      
T = Trace of Precipitation, MM = Missing Value Source: NWS Daily Summary

Daily Weather History Graph

Daily Weather History Graph

Search for Another Location

Airport:

Trip Planner

Search our weather history database for the weather conditions in past years. The results will help you decide how hot, cold, wet, or windy it might be!

Date:

Astronomy

Jan. 18, 2013 Rise Set
Actual Time 7:11 AM MST 5:31 PM MST
Civil Twilight 6:45 AM MST 5:58 PM MST
Nautical Twilight 6:15 AM MST 6:28 PM MST
Astronomical Twilight 5:45 AM MST 6:57 PM MST
Moon 11:20 AM MST (1/18) No Moon Set
Length of Visible Light 11h 13m
Length of Day
10h 20m
Waxing Crescent, 48% of the Moon is Illuminated
Jan 18
Waxing Crescent
Jan 18
First Quarter
Jan 26
Full
Feb 3
Last Quarter
Feb 10
New

Hourly Weather History & Observations

Time (MST) Temp. Windchill Dew Point Humidity Pressure Visibility Wind Dir Wind Speed Gust Speed Precip Events Conditions
12:53 AM 34.0 °F 27.2 °F 17.1 °F 50% 30.30 in 10.0 mi East 8.1 mph - N/A   Clear
1:53 AM 28.9 °F 21.9 °F 15.1 °F 56% 30.32 in 10.0 mi East 6.9 mph - N/A   Clear
2:53 AM 32.0 °F 25.6 °F 17.1 °F 54% 30.30 in 10.0 mi East 6.9 mph - N/A   Clear
3:53 AM 28.9 °F 25.2 °F 15.1 °F 56% 30.29 in 10.0 mi ESE 3.5 mph - N/A   Clear
4:53 AM 25.0 °F 16.3 °F 12.9 °F 60% 30.29 in 10.0 mi East 8.1 mph - N/A   Clear
5:53 AM 24.1 °F 16.0 °F 12.9 °F 62% 30.32 in 10.0 mi East 6.9 mph - N/A   Clear
6:53 AM 23.0 °F 14.7 °F 12.9 °F 65% 30.34 in 10.0 mi East 6.9 mph - N/A   Clear
7:53 AM 28.9 °F 21.1 °F 15.1 °F 56% 30.34 in 10.0 mi ENE 8.1 mph - N/A   Clear
8:53 AM 39.9 °F 35.8 °F 19.9 °F 45% 30.34 in 10.0 mi East 5.8 mph - N/A   Clear
9:53 AM 46.0 °F 41.9 °F 19.9 °F 35% 30.34 in 10.0 mi East 8.1 mph - N/A   Clear
10:53 AM 48.9 °F - 19.9 °F 32% 30.32 in 10.0 mi East 9.2 mph - N/A   Clear
11:53 AM 51.1 °F - 19.9 °F 29% 30.27 in 10.0 mi East 8.1 mph - N/A   Clear
12:53 PM 53.1 °F - 19.0 °F 26% 30.22 in 10.0 mi ESE 6.9 mph - N/A   Clear
1:53 PM 55.0 °F - 17.1 °F 23% 30.20 in 10.0 mi Calm Calm - N/A   Clear
2:53 PM 57.0 °F - 17.1 °F 21% 30.17 in 10.0 mi Calm Calm - N/A   Clear
3:53 PM 57.0 °F - 18.0 °F 22% 30.17 in 10.0 mi Calm Calm - N/A   Clear
4:53 PM 55.9 °F - 17.1 °F 22% 30.18 in 10.0 mi Calm Calm - N/A   Clear
5:53 PM 48.9 °F - 16.0 °F 27% 30.21 in 10.0 mi ENE 3.5 mph - N/A   Clear
6:53 PM 43.0 °F 40.3 °F 16.0 °F 34% 30.24 in 10.0 mi SSE 4.6 mph - N/A   Clear
7:53 PM 39.9 °F 37.8 °F 17.1 °F 40% 30.23 in 10.0 mi SW 3.5 mph - N/A   Clear
8:53 PM 35.1 °F 29.3 °F 12.9 °F 40% 30.22 in 10.0 mi NW 6.9 mph - N/A   Clear
9:53 PM 32.0 °F - 10.9 °F 42% 30.23 in 10.0 mi Calm Calm - N/A   Clear
10:53 PM 28.9 °F 23.9 °F 10.9 °F 47% 30.22 in 10.0 mi NW 4.6 mph - N/A   Clear
11:53 PM 26.1 °F 20.5 °F 10.0 °F 51% 30.22 in 10.0 mi WNW 4.6 mph - N/A   Clear